Tracking 18784 objects as of 18-August-2017
HD Live streaming from Space Station
objects crossing your sky now

USA 224

Track USA 224 now!
10-day predictions
USA 224 is classified as:


NORAD ID: 37348
Int'l Code: 2011-002A
Perigee: 269.1 km
Apogee: 1,000.5 km
Inclination: 97.9 °
Period: 97.3 minutes
Semi major axis: 7005 km
RCS: Unknown
Launch date: January 20, 2011
Source: United States (US)
Launch site: AIR FORCE WESTERN TEST RANGE (AFWTR)

USA 224 is a secret satellite serving the U.S. National Reconnaissance Office.
Your satellite tracking list
Your tracking list is empty





NASA's NSSDC Master Catalog

Two Line Element Set (TLE):
1 37348U 11002A   17228.01844297 0.00004000  00000-0  37783-4 0    03
2 37348  97.8999 339.2894 0521965  22.7712 337.2286 14.80525853    07
Source of the keplerian elements: McCants